Tracking 29493 objects as of 8-Sep-2024
HD Live streaming from Space Station
objects crossing your sky now

BRO-7

Track BRO-7 now!
10-day predictions
BRO-7 is classified as:


NORAD ID: 52174
Int'l Code: 2022-033T
Perigee: 432.0 km
Apogee: 442.0 km
Inclination: 97.3 °
Period: 93.2 minutes
Semi major axis: 6807 km
RCS: Unknown
Launch date: April 1, 2022
Source: France (FR)
Launch site: AIR FORCE EASTERN TEST RANGE (AFETR)

Uplink (MHz):
Downlink (MHz): 401.735
Beacon (MHz):
Mode: 9600bps FSK
Call sign:
Status: Active

Your satellite tracking list
Your tracking list is empty




NASA's NSSDC Master Catalog

Two Line Element Set (TLE):
1 52174U 22033T   24252.49173641  .00039080  00000-0  81242-3 0  9999
2 52174  97.3210 336.7038 0007341 345.5770  14.5269 15.45524319136229
Source of the keplerian elements: AFSPC